| time (UTC) | temp F | wind direction | speed knots | gust knots | rain 1hr in | rain 24hr in | rain mn in | humidity % | barometer mb |
| 20260506212042 | 57 | 182 | 3.5 | 4.3 | 0.07 | 0.27 | 0.27 | 99 | 1006.2 |
| 20260506211539 | 57 | 190 | 1.7 | 1.7 | 0.14 | 0.27 | 0.27 | 99 | 1006.3 |
| 20260506211036 | 57 | 142 | 2.6 | 2.6 | 0.12 | 0.26 | 0.26 | 99 | 1006.3 |
| 20260506210532 | 57 | 139 | 1.7 | 1.7 | 0.17 | 0.25 | 0.25 | 99 | 1006.4 |
| 20260506210029 | 57 | 277 | 0.9 | 0.9 | 0.19 | 0.24 | 0.24 | 99 | 1006.3 |
| 20260506205526 | 57 | 181 | 2.6 | 4.3 | 0.12 | 0.22 | 0.22 | 99 | 1006.8 |
| 20260506205021 | 57 | 167 | 1.7 | 1.7 | 0.12 | 0.21 | 0.21 | 99 | 1006.7 |
| 20260506204520 | 57 | 151 | 0.0 | 0.0 | 0.07 | 0.20 | 0.20 | 99 | 1006.7 |
| 20260506204016 | 57 | 148 | 0.9 | 0.9 | 0.00 | 0.19 | 0.19 | 99 | 1006.8 |
| 20260506203515 | 57 | 179 | 0.9 | 1.7 | 0.05 | 0.19 | 0.19 | 99 | 1006.7 |
| 20260506203011 | 57 | 173 | 0.0 | 0.0 | 0.12 | 0.19 | 0.19 | 99 | 1006.6 |
| 20260506202508 | 57 | 182 | 1.7 | 1.7 | 0.12 | 0.18 | 0.18 | 99 | 1006.9 |
| 20260506202004 | 57 | 225 | 1.7 | 1.7 | 0.12 | 0.17 | 0.17 | 99 | 1006.7 |
| 20260506201502 | 57 | 171 | 4.3 | 5.2 | 0.07 | 0.16 | 0.16 | 99 | 1006.8 |
| 20260506200958 | 57 | 150 | 3.5 | 5.2 | 0.05 | 0.15 | 0.15 | 99 | 1006.7 |
| 20260506200454 | 57 | 192 | 2.6 | 2.6 | 0.05 | 0.15 | 0.15 | 99 | 1006.9 |
| 20260506195951 | 57 | 154 | 1.7 | 2.6 | 0.07 | 0.14 | 0.14 | 99 | 1007.0 |
| 20260506195448 | 57 | 154 | 2.6 | 4.3 | 0.07 | 0.14 | 0.14 | 99 | 1007.2 |
| 20260506194944 | 57 | 138 | 3.5 | 6.1 | 0.00 | 0.13 | 0.13 | 99 | 1007.1 |
| 20260506194442 | 57 | 283 | 2.6 | 5.2 | 0.00 | 0.13 | 0.13 | 99 | 1007.1 |
| 20260506193933 | 57 | 186 | 4.3 | 5.2 | 0.00 | 0.13 | 0.13 | 99 | 1007.4 |
| 20260506193430 | 57 | 217 | 2.6 | 2.6 | 0.00 | 0.13 | 0.13 | 99 | 1007.6 |
| 20260506192927 | 57 | 116 | 0.9 | 0.9 | 0.00 | 0.13 | 0.13 | 99 | 1007.4 |
| 20260506192424 | 57 | 173 | 0.9 | 0.9 | 0.07 | 0.13 | 0.13 | 99 | 1007.4 |
| 20260506191920 | 57 | 117 | 0.9 | 1.7 | 0.07 | 0.13 | 0.13 | 99 | 1007.3 |
| 20260506191417 | 57 | 142 | 2.6 | 2.6 | 0.00 | 0.12 | 0.12 | 99 | 1007.2 |
| 20260506190914 | 57 | 225 | 1.7 | 1.7 | 0.00 | 0.12 | 0.12 | 99 | 1007.6 |
| 20260506190410 | 57 | 202 | 2.6 | 4.3 | 0.05 | 0.12 | 0.12 | 98 | 1007.5 |
| 20260506185907 | 57 | 148 | 0.0 | 0.0 | 0.05 | 0.12 | 0.12 | 98 | 1007.7 |
| 20260506185404 | 57 | 229 | 0.9 | 1.7 | 0.07 | 0.11 | 0.11 | 98 | 1007.5 |
| 20260506184902 | 58 | 232 | 0.0 | 0.0 | 0.07 | 0.11 | 0.11 | 98 | 1007.6 |
| 20260506184358 | 58 | 279 | 1.7 | 2.6 | 0.05 | 0.10 | 0.10 | 98 | 1007.6 |
| 20260506183856 | 58 | 205 | 2.6 | 2.6 | 0.12 | 0.10 | 0.10 | 97 | 1007.6 |
| 20260506183350 | 58 | 170 | 1.7 | 1.7 | 0.12 | 0.09 | 0.09 | 97 | 1007.3 |
| 20260506182848 | 59 | 167 | 4.3 | 6.1 | 0.19 | 0.09 | 0.09 | 96 | 1007.6 |
| 20260506182345 | 59 | 165 | 2.6 | 4.3 | 0.17 | 0.08 | 0.08 | 96 | 1007.6 |
| 20260506181843 | 59 | 152 | 3.5 | 5.2 | 0.12 | 0.06 | 0.06 | 95 | 1007.8 |
| 20260506181341 | 59 | 286 | 0.9 | 0.9 | 0.12 | 0.05 | 0.05 | 94 | 1007.9 |
| 20260506180837 | 60 | 173 | 0.0 | 0.0 | 0.12 | 0.04 | 0.04 | 94 | 1007.9 |
| 20260506180333 | 60 | 243 | 0.9 | 0.9 | 0.14 | 0.03 | 0.03 | 93 | 1008.3 |
| 20260506175830 | 60 | 183 | 0.0 | 0.0 | 0.07 | 0.02 | 0.02 | 92 | 1008.0 |
| 20260506175327 | 60 | 253 | 0.9 | 0.9 | 0.00 | 0.01 | 0.01 | 91 | 1008.2 |
| 20260506174824 | 61 | 154 | 0.0 | 0.9 | 0.05 | 0.01 | 0.01 | 91 | 1008.4 |
| 20260506174321 | 61 | 147 | 0.0 | 0.0 | 0.05 | 0.01 | 0.01 | 89 | 1008.4 |
| 20260506173819 | 61 | 270 | 1.7 | 4.3 | 0.00 | 0.00 | 0.00 | 88 | 1008.3 |
| 20260506173315 | 62 | 195 | 0.9 | 0.9 | 0.00 | 0.00 | 0.00 | 87 | 1008.5 |
| 20260506172813 | 63 | 181 | 0.9 | 0.9 | 0.00 | 0.00 | 0.00 | 86 | 1008.7 |
| 20260506172309 | 63 | 355 | 0.0 | 0.9 | 0.00 | 0.00 | 0.00 | 84 | 1008.8 |
| 20260506171807 | 64 | 215 | 2.6 | 2.6 | 0.00 | 0.00 | 0.00 | 82 | 1008.7 |
| 20260506171303 | 65 | 5 | 1.7 | 1.7 | 0.00 | 0.00 | 0.00 | 80 | 1008.7 |
| 20260506170801 | 66 | 139 | 2.6 | 2.6 | 0.00 | 0.00 | 0.00 | 78 | 1008.7 |
| 20260506170257 | 66 | 22 | 2.6 | 4.3 | 0.00 | 0.00 | 0.00 | 76 | 1008.5 |
| 20260506165756 | 67 | 193 | 2.6 | 2.6 | 0.00 | 0.00 | 0.00 | 75 | 1008.6 |
| 20260506165253 | 67 | 195 | 1.7 | 4.3 | 0.00 | 0.00 | 0.00 | 74 | 1008.7 |
| 20260506164750 | 68 | 165 | 1.7 | 2.6 | 0.00 | 0.00 | 0.00 | 74 | 1008.3 |
| 20260506164246 | 67 | 125 | 6.1 | 7.0 | 0.00 | 0.00 | 0.00 | 74 | 1008.5 |
| 20260506163744 | 68 | 203 | 5.2 | 7.0 | 0.00 | 0.00 | 0.00 | 73 | 1008.3 |
| 20260506163238 | 68 | 119 | 9.6 | 12.2 | 0.00 | 0.00 | 0.00 | 73 | 1008.3 |
| 20260506162734 | 68 | 177 | 3.5 | 5.2 | 0.00 | 0.00 | 0.00 | 72 | 1008.4 |
| 20260506162232 | 67 | 148 | 3.5 | 4.3 | 0.00 | 0.00 | 0.00 | 74 | 1008.4 |
| 20260506161724 | 68 | 183 | 0.9 | 1.7 | 0.00 | 0.00 | 0.00 | 73 | 1008.5 |
| 20260506161221 | 68 | 281 | 1.7 | 1.7 | 0.00 | 0.00 | 0.00 | 73 | 1008.6 |
| 20260506160718 | 68 | 27 | 0.9 | 0.9 | 0.00 | 0.00 | 0.00 | 73 | 1008.8 |
| 20260506160215 | 68 | 256 | 2.6 | 2.6 | 0.00 | 0.00 | 0.00 | 72 | 1008.8 |
| 20260506155713 | 68 | 167 | 6.1 | 8.7 | 0.00 | 0.00 | 0.00 | 71 | 1008.8 |
| 20260506155210 | 68 | 175 | 1.7 | 1.7 | 0.00 | 0.00 | 0.00 | 71 | 1008.6 |
| 20260506153312 | 68 | 185 | 1.7 | 1.7 | 0.00 | 0.00 | 0.00 | 71 | 1008.8 |
| 20260506152809 | 68 | 193 | 2.6 | 4.3 | 0.00 | 0.00 | 0.00 | 71 | 1009.0 |
| 20260506152306 | 69 | 183 | 1.7 | 2.6 | 0.00 | 0.00 | 0.00 | 70 | 1008.9 |
| 20260506151805 | 69 | 244 | 3.5 | 5.2 | 0.00 | 0.00 | 0.00 | 70 | 1008.9 |
| 20260506151301 | 69 | 139 | 1.7 | 1.7 | 0.00 | 0.00 | 0.00 | 71 | 1009.1 |
| 20260506150758 | 69 | 292 | 2.6 | 4.3 | 0.00 | 0.00 | 0.00 | 72 | 1009.2 |
| 20260506150303 | 68 | 167 | 4.3 | 6.1 | 0.00 | 0.00 | 0.00 | 71 | 1009.2 |
| 20260506145752 | 68 | 243 | 4.3 | 6.1 | 0.00 | 0.00 | 0.00 | 72 | 1009.2 |
| 20260506145248 | 68 | 253 | 0.9 | 0.9 | 0.00 | 0.00 | 0.00 | 73 | 1009.3 |
| 20260506144746 | 69 | 133 | 4.3 | 7.0 | 0.00 | 0.00 | 0.00 | 71 | 1009.2 |
| 20260506144243 | 69 | 178 | 2.6 | 6.1 | 0.00 | 0.00 | 0.00 | 72 | 1009.2 |
| 20260506143740 | 68 | 209 | 2.6 | 4.3 | 0.00 | 0.00 | 0.00 | 73 | 1009.2 |
| 20260506143237 | 68 | 226 | 4.3 | 6.1 | 0.00 | 0.00 | 0.00 | 73 | 1009.6 |
| 20260506142736 | 67 | 257 | 2.6 | 2.6 | 0.00 | 0.00 | 0.00 | 75 | 1009.4 |
| 20260506142233 | 66 | 253 | 3.5 | 5.2 | 0.00 | 0.00 | 0.00 | 76 | 1009.3 |
| 20260506141731 | 66 | 165 | 2.6 | 5.2 | 0.00 | 0.00 | 0.00 | 77 | 1009.6 |
| 20260506141229 | 65 | 165 | 3.5 | 4.3 | 0.00 | 0.00 | 0.00 | 78 | 1009.5 |
| 20260506140727 | 66 | 171 | 4.3 | 5.2 | 0.00 | 0.00 | 0.00 | 78 | 1009.3 |
| 20260506140223 | 66 | 259 | 3.5 | 4.3 | 0.00 | 0.00 | 0.00 | 78 | 1009.4 |
| 20260506135720 | 66 | 201 | 1.7 | 1.7 | 0.00 | 0.00 | 0.00 | 78 | 1009.4 |
| 20260506135216 | 66 | 219 | 2.6 | 2.6 | 0.00 | 0.00 | 0.00 | 78 | 1009.3 |
| 20260506134714 | 66 | 175 | 1.7 | 2.6 | 0.00 | 0.00 | 0.00 | 79 | 1009.0 |
| 20260506134209 | 66 | 207 | 0.9 | 0.9 | 0.00 | 0.00 | 0.00 | 79 | 1009.2 |
| 20260506133707 | 65 | 209 | 1.7 | 2.6 | 0.00 | 0.00 | 0.00 | 79 | 1009.3 |
| 20260506133203 | 65 | 194 | 2.6 | 2.6 | 0.00 | 0.00 | 0.00 | 81 | 1009.3 |
| 20260506132701 | 65 | 317 | 3.5 | 7.0 | 0.00 | 0.00 | 0.00 | 81 | 1009.2 |
| 20260506132157 | 65 | 168 | 2.6 | 2.6 | 0.00 | 0.00 | 0.00 | 81 | 1009.4 |
| 20260506131655 | 64 | 197 | 3.5 | 4.3 | 0.00 | 0.00 | 0.00 | 82 | 1009.6 |
| 20260506131151 | 64 | 172 | 4.3 | 7.8 | 0.00 | 0.00 | 0.00 | 82 | 1009.7 |
| 20260506130648 | 63 | 196 | 3.5 | 6.1 | 0.00 | 0.00 | 0.00 | 84 | 1009.6 |
| 20260506130146 | 63 | 196 | 0.9 | 0.9 | 0.00 | 0.00 | 0.00 | 85 | 1009.8 |
| 20260506125644 | 63 | 218 | 1.7 | 2.6 | 0.00 | 0.00 | 0.00 | 85 | 1009.7 |
| 20260506125141 | 63 | 155 | 4.3 | 7.0 | 0.00 | 0.00 | 0.00 | 85 | 1009.8 |
| 20260506124639 | 63 | 267 | 1.7 | 2.6 | 0.00 | 0.00 | 0.00 | 86 | 1009.7 |
| 20260506124136 | 62 | 209 | 0.0 | 0.9 | 0.00 | 0.00 | 0.00 | 86 | 1010.0 |
| 20260506123634 | 62 | 221 | 2.6 | 2.6 | 0.00 | 0.00 | 0.00 | 87 | 1009.8 |
| 20260506123132 | 62 | 161 | 0.9 | 1.7 | 0.00 | 0.00 | 0.00 | 88 | 1009.8 |
| 20260506122629 | 61 | 102 | 0.9 | 1.7 | 0.00 | 0.00 | 0.00 | 88 | 1009.7 |
| 20260506122126 | 61 | 229 | 3.5 | 5.2 | 0.00 | 0.00 | 0.00 | 88 | 1009.8 |
| 20260506121624 | 61 | 147 | 2.6 | 4.3 | 0.00 | 0.00 | 0.00 | 90 | 1010.1 |
| 20260506121120 | 60 | 126 | 0.0 | 0.9 | 0.00 | 0.00 | 0.00 | 90 | 1009.8 |
| 20260506120618 | 60 | 165 | 2.6 | 2.6 | 0.00 | 0.00 | 0.00 | 91 | 1010.0 |
| 20260506120115 | 60 | 184 | 2.6 | 2.6 | 0.00 | 0.00 | 0.00 | 91 | 1009.8 |
| 20260506115614 | 59 | 210 | 0.0 | 0.9 | 0.00 | 0.00 | 0.00 | 92 | 1010.2 |
| 20260506115112 | 59 | 258 | 1.7 | 2.6 | 0.00 | 0.00 | 0.00 | 92 | 1010.0 |
| 20260506114608 | 59 | 131 | 1.7 | 2.6 | 0.00 | 0.00 | 0.00 | 92 | 1009.6 |
| 20260506114107 | 59 | 124 | 2.6 | 5.2 | 0.00 | 0.00 | 0.00 | 93 | 1009.6 |
| 20260506113604 | 58 | 160 | 0.0 | 0.0 | 0.00 | 0.00 | 0.00 | 94 | 1010.0 |
| 20260506113101 | 58 | 251 | 0.9 | 2.6 | 0.00 | 0.00 | 0.00 | 94 | 1010.2 |
| 20260506112558 | 57 | 162 | 2.6 | 2.6 | 0.00 | 0.00 | 0.00 | 95 | 1010.2 |
| 20260506112055 | 57 | 172 | 2.6 | 4.3 | 0.00 | 0.00 | 0.00 | 96 | 1010.3 |
| 20260506111553 | 56 | 213 | 0.9 | 0.9 | 0.00 | 0.00 | 0.00 | 96 | 1010.5 |
| 20260506111050 | 56 | 148 | 0.9 | 0.9 | 0.00 | 0.00 | 0.00 | 96 | 1010.4 |
| 20260506110548 | 56 | 217 | 0.9 | 1.7 | 0.00 | 0.00 | 0.00 | 96 | 1010.5 |
| 20260506110045 | 56 | 182 | 1.7 | 1.7 | 0.00 | 0.00 | 0.00 | 96 | 1010.5 |
| 20260506105541 | 56 | 143 | 4.3 | 6.1 | 0.00 | 0.00 | 0.00 | 96 | 1010.4 |
| 20260506105039 | 56 | 173 | 0.9 | 0.9 | 0.00 | 0.00 | 0.00 | 97 | 1010.1 |
| 20260506104536 | 55 | 140 | 1.7 | 1.7 | 0.00 | 0.00 | 0.00 | 97 | 1010.0 |
| 20260506104034 | 55 | 129 | 0.0 | 0.0 | 0.00 | 0.00 | 0.00 | 97 | 1010.0 |
| 20260506103531 | 55 | 138 | 0.0 | 0.9 | 0.00 | 0.00 | 0.00 | 97 | 1010.1 |
| 20260506103027 | 55 | 131 | 0.9 | 1.7 | 0.00 | 0.00 | 0.00 | 97 | 1010.2 |
| 20260506102526 | 55 | 133 | 0.0 | 0.9 | 0.00 | 0.00 | 0.00 | 97 | 1010.1 |
| 20260506102023 | 54 | 171 | 0.0 | 0.9 | 0.00 | 0.00 | 0.00 | 97 | 1010.1 |
| 20260506101519 | 54 | 128 | 1.7 | 1.7 | 0.00 | 0.00 | 0.00 | 97 | 1010.1 |
| 20260506101017 | 55 | 221 | 0.0 | 0.0 | 0.00 | 0.00 | 0.00 | 97 | 1010.1 |
| 20260506100515 | 54 | 137 | 0.0 | 0.0 | 0.00 | 0.00 | 0.00 | 97 | 1010.2 |
| 20260506100013 | 55 | 175 | 0.0 | 0.0 | 0.00 | 0.00 | 0.00 | 97 | 1010.0 |
| 20260506095511 | 54 | 132 | 0.0 | 0.9 | 0.00 | 0.00 | 0.00 | 97 | 1010.0 |
| 20260506095007 | 54 | 134 | 0.0 | 0.9 | 0.00 | 0.00 | 0.00 | 96 | 1010.1 |
| 20260506094505 | 54 | 102 | 0.0 | 0.0 | 0.00 | 0.00 | 0.00 | 96 | 1009.8 |
| 20260506094003 | 55 | 198 | 0.0 | 0.0 | 0.00 | 0.00 | 0.00 | 96 | 1010.1 |
| 20260506093501 | 55 | 177 | 0.0 | 0.9 | 0.00 | 0.00 | 0.00 | 96 | 1009.8 |
| 20260506092958 | 55 | 150 | 2.6 | 2.6 | 0.00 | 0.00 | 0.00 | 96 | 1009.7 |
| 20260506092456 | 55 | 153 | 1.7 | 1.7 | 0.00 | 0.00 | 0.00 | 95 | 1010.1 |
| 20260506091952 | 55 | 195 | 0.9 | 0.9 | 0.00 | 0.00 | 0.00 | 95 | 1010.0 |
| 20260506091451 | 55 | 179 | 0.0 | 0.0 | 0.00 | 0.00 | 0.00 | 95 | 1010.1 |
| 20260506090947 | 55 | 109 | 0.0 | 0.9 | 0.00 | 0.00 | 0.00 | 95 | 1010.1 |
| 20260506090445 | 55 | 191 | 0.0 | 0.0 | 0.00 | 0.00 | 0.00 | 95 | 1010.0 |
| 20260506085941 | 55 | 128 | 0.0 | 0.0 | 0.00 | 0.00 | 0.00 | 94 | 1009.8 |
| 20260506085438 | 55 | 146 | 0.9 | 1.7 | 0.00 | 0.00 | 0.00 | 95 | 1010.3 |
| 20260506084935 | 55 | 236 | 0.0 | 0.0 | 0.00 | 0.00 | 0.00 | 94 | 1010.4 |
| 20260506084432 | 55 | 81 | 0.0 | 0.0 | 0.00 | 0.00 | 0.00 | 94 | 1010.3 |
| 20260506083927 | 55 | 151 | 0.9 | 1.7 | 0.00 | 0.00 | 0.00 | 94 | 1010.1 |
| 20260506083425 | 56 | 108 | 0.0 | 0.9 | 0.00 | 0.00 | 0.00 | 94 | 1009.8 |
| 20260506082922 | 56 | 104 | 0.0 | 0.0 | 0.00 | 0.00 | 0.00 | 93 | 1010.2 |
| 20260506082419 | 56 | 134 | 0.9 | 0.9 | 0.00 | 0.00 | 0.00 | 93 | 1010.2 |
| 20260506081915 | 56 | 112 | 0.9 | 1.7 | 0.00 | 0.00 | 0.00 | 93 | 1010.1 |
| 20260506081414 | 56 | 217 | 0.0 | 0.0 | 0.00 | 0.00 | 0.00 | 93 | 1010.1 |
| 20260506080910 | 56 | 138 | 0.0 | 0.9 | 0.00 | 0.00 | 0.00 | 93 | 1010.4 |
| 20260506080407 | 56 | 260 | 0.9 | 1.7 | 0.00 | 0.00 | 0.00 | 93 | 1010.5 |
| 20260506073351 | 56 | 185 | 0.9 | 0.9 | 0.00 | 0.00 | 0.00 | 91 | 1010.7 |
| 20260506072848 | 57 | 132 | 1.7 | 1.7 | 0.00 | 0.00 | 0.00 | 91 | 1010.4 |
| 20260506072346 | 57 | 223 | 0.0 | 0.0 | 0.00 | 0.00 | 0.00 | 90 | 1010.4 |
| 20260506071843 | 56 | 147 | 2.6 | 5.2 | 0.00 | 0.00 | 0.00 | 91 | 1010.3 |
| 20260506071341 | 57 | 188 | 0.9 | 0.9 | 0.00 | 0.00 | 0.00 | 91 | 1010.6 |
| 20260506070837 | 57 | 156 | 0.9 | 1.7 | 0.00 | 0.00 | 0.00 | 90 | 1009.8 |
| 20260506070335 | 57 | 174 | 3.5 | 4.3 | 0.00 | 0.00 | 0.00 | 91 | 1010.4 |
| 20260506062312 | 58 | 169 | 1.7 | 1.7 | 0.00 | 0.00 | 0.00 | 88 | 1010.3 |
| 20260506061808 | 58 | 166 | 0.9 | 1.7 | 0.00 | 0.00 | 0.00 | 88 | 1010.3 |
| 20260506061305 | 58 | 154 | 0.0 | 0.9 | 0.00 | 0.00 | 0.00 | 87 | 1010.0 |
| 20260506060803 | 58 | 200 | 4.3 | 6.1 | 0.00 | 0.00 | 0.00 | 87 | 1010.3 |
| 20260506060301 | 58 | 279 | 3.5 | 5.2 | 0.00 | 0.00 | 0.00 | 87 | 1010.2 |
| 20260506051232 | 60 | 181 | 0.9 | 0.9 | 0.00 | 0.00 | 0.00 | 83 | 1010.7 |
| 20260506050730 | 60 | 132 | 0.0 | 0.9 | 0.00 | 0.00 | 0.00 | 83 | 1010.5 |
| 20260506050227 | 60 | 191 | 0.0 | 0.0 | 0.00 | 0.00 | 0.00 | 82 | 1010.6 |
| 20260506044718 | 60 | 128 | 0.9 | 0.9 | 0.00 | 0.00 | 0.00 | 81 | 1010.6 |
| 20260506044215 | 60 | 227 | 0.0 | 0.9 | 0.00 | 0.00 | 0.00 | 81 | 1010.7 |
| 20260506043713 | 60 | 183 | 0.9 | 0.9 | 0.00 | 0.00 | 0.00 | 80 | 1010.8 |
| 20260506043210 | 60 | 157 | 0.9 | 0.9 | 0.00 | 0.00 | 0.00 | 80 | 1010.8 |
| 20260506042709 | 60 | 136 | 1.7 | 1.7 | 0.00 | 0.00 | 0.00 | 80 | 1010.7 |
| 20260506042207 | 60 | 177 | 0.9 | 0.9 | 0.00 | 0.00 | 0.00 | 79 | 1010.6 |
| 20260506041705 | 60 | 94 | 0.0 | 0.0 | 0.00 | 0.00 | 0.00 | 79 | 1010.8 |
| 20260506041201 | 60 | 162 | 4.3 | 6.1 | 0.00 | 0.00 | 0.00 | 79 | 1010.9 |
| 20260506040659 | 60 | 123 | 1.7 | 1.7 | 0.00 | 0.00 | 0.00 | 78 | 1010.8 |
| 20260506040156 | 60 | 176 | 1.7 | 1.7 | 0.00 | 0.00 | 0.00 | 78 | 1010.7 |
| 20260506035652 | 60 | 127 | 2.6 | 2.6 | 0.00 | 0.00 | 0.00 | 78 | 1010.8 |
| 20260506035149 | 61 | 185 | 1.7 | 1.7 | 0.00 | 0.00 | 0.00 | 77 | 1010.9 |
| 20260506034646 | 61 | 135 | 4.3 | 5.2 | 0.00 | 0.00 | 0.00 | 77 | 1010.9 |
| 20260506034143 | 61 | 171 | 2.6 | 2.6 | 0.00 | 0.00 | 0.00 | 77 | 1010.9 |
| 20260506033641 | 61 | 154 | 1.7 | 2.6 | 0.00 | 0.00 | 0.00 | 76 | 1010.8 |
| 20260506033137 | 61 | 145 | 0.9 | 1.7 | 0.00 | 0.00 | 0.00 | 77 | 1010.8 |
| 20260506032635 | 61 | 104 | 0.0 | 0.9 | 0.00 | 0.00 | 0.00 | 76 | 1010.7 |
| 20260506032131 | 61 | 81 | 1.7 | 1.7 | 0.00 | 0.00 | 0.00 | 77 | 1010.6 |
| 20260506031628 | 61 | 218 | 0.0 | 0.9 | 0.00 | 0.00 | 0.00 | 77 | 1010.6 |
| 20260506031125 | 61 | 260 | 0.9 | 0.9 | 0.00 | 0.00 | 0.00 | 77 | 1010.5 |
| 20260506030624 | 60 | 208 | 0.9 | 2.6 | 0.00 | 0.00 | 0.00 | 77 | 1010.6 |
| 20260506030121 | 60 | 187 | 2.6 | 4.3 | 0.00 | 0.00 | 0.00 | 77 | 1010.6 |
| 20260506025618 | 60 | 177 | 3.5 | 4.3 | 0.00 | 0.00 | 0.00 | 78 | 1010.7 |
| 20260506025113 | 60 | 189 | 1.7 | 4.3 | 0.00 | 0.00 | 0.00 | 78 | 1010.6 |
| 20260506024611 | 60 | 110 | 0.9 | 1.7 | 0.00 | 0.00 | 0.00 | 78 | 1010.5 |
| 20260506024107 | 60 | 182 | 5.2 | 7.0 | 0.00 | 0.00 | 0.00 | 78 | 1010.7 |
| 20260506023603 | 60 | 204 | 4.3 | 6.1 | 0.00 | 0.00 | 0.00 | 78 | 1010.8 |
| 20260506023101 | 60 | 166 | 0.0 | 0.0 | 0.00 | 0.00 | 0.00 | 78 | 1010.7 |
| 20260506022558 | 60 | 139 | 0.0 | 0.0 | 0.00 | 0.00 | 0.00 | 77 | 1010.7 |
| 20260506022056 | 60 | 196 | 0.0 | 0.9 | 0.00 | 0.00 | 0.00 | 77 | 1010.6 |
| 20260506021553 | 60 | 129 | 0.9 | 0.9 | 0.00 | 0.00 | 0.00 | 77 | 1010.8 |
| 20260506021050 | 60 | 130 | 1.7 | 1.7 | 0.00 | 0.00 | 0.00 | 77 | 1010.7 |
| 20260506020547 | 60 | 132 | 3.5 | 4.3 | 0.00 | 0.00 | 0.00 | 77 | 1010.5 |
| 20260506020045 | 60 | 154 | 0.0 | 0.9 | 0.00 | 0.00 | 0.00 | 77 | 1010.7 |
| 20260506015542 | 60 | 143 | 0.0 | 0.0 | 0.00 | 0.00 | 0.00 | 77 | 1010.7 |
| 20260506015039 | 60 | 165 | 0.0 | 0.0 | 0.00 | 0.00 | 0.00 | 76 | 1010.8 |
| 20260506014537 | 60 | 132 | 0.0 | 0.9 | 0.00 | 0.00 | 0.00 | 76 | 1010.6 |
| 20260506014032 | 60 | 186 | 0.0 | 0.9 | 0.00 | 0.00 | 0.00 | 76 | 1010.7 |
| 20260506013531 | 60 | 145 | 1.7 | 2.6 | 0.00 | 0.00 | 0.00 | 75 | 1010.4 |
| 20260506013026 | 60 | 190 | 0.9 | 0.9 | 0.00 | 0.00 | 0.00 | 75 | 1010.3 |
| 20260506012522 | 60 | 134 | 1.7 | 2.6 | 0.00 | 0.00 | 0.00 | 74 | 1010.4 |
| 20260506012019 | 61 | 133 | 0.0 | 0.9 | 0.00 | 0.00 | 0.00 | 74 | 1010.2 |
| 20260506011517 | 61 | 172 | 3.5 | 4.3 | 0.00 | 0.00 | 0.00 | 73 | 1010.3 |
| 20260506011013 | 61 | 231 | 2.6 | 5.2 | 0.00 | 0.00 | 0.00 | 73 | 1010.3 |
| 20260506010508 | 62 | 185 | 3.5 | 5.2 | 0.00 | 0.00 | 0.00 | 72 | 1010.1 |
| 20260506010004 | 62 | 165 | 0.9 | 1.7 | 0.00 | 0.00 | 0.00 | 72 | 1010.2 |
| 20260506005501 | 62 | 242 | 0.9 | 1.7 | 0.00 | 0.00 | 0.00 | 71 | 1010.2 |
| 20260506004956 | 62 | 207 | 0.0 | 0.9 | 0.00 | 0.00 | 0.00 | 71 | 1010.1 |
| 20260506004454 | 62 | 191 | 3.5 | 5.2 | 0.00 | 0.00 | 0.00 | 71 | 1009.8 |
| 20260506003950 | 62 | 220 | 0.9 | 1.7 | 0.00 | 0.00 | 0.00 | 71 | 1010.0 |
| 20260506003447 | 62 | 159 | 1.7 | 1.7 | 0.00 | 0.00 | 0.00 | 71 | 1009.8 |
| 20260506002943 | 63 | 133 | 0.0 | 0.9 | 0.00 | 0.00 | 0.00 | 71 | 1009.4 |
| 20260506002439 | 63 | 171 | 0.0 | 0.0 | 0.00 | 0.00 | 0.00 | 70 | 1009.7 |
| 20260506001935 | 63 | 180 | 0.0 | 0.9 | 0.00 | 0.00 | 0.00 | 70 | 1009.5 |
| 20260506001432 | 64 | 149 | 4.3 | 6.1 | 0.00 | 0.00 | 0.00 | 69 | 1009.4 |
| 20260506000929 | 64 | 166 | 3.5 | 4.3 | 0.00 | 0.00 | 0.00 | 69 | 1009.3 |
| 20260506000427 | 64 | 190 | 3.5 | 5.2 | 0.00 | 0.00 | 0.00 | 69 | 1009.1 |
| 20260505235923 | 64 | 155 | 1.7 | 2.6 | 0.00 | 0.00 | 0.00 | 69 | 1009.1 |
| 20260505235422 | 64 | 300 | 0.9 | 1.7 | 0.00 | 0.00 | 0.00 | 68 | 1009.1 |
| 20260505234918 | 65 | 212 | 1.7 | 1.7 | 0.00 | 0.00 | 0.00 | 68 | 1008.9 |
| 20260505234416 | 65 | 230 | 3.5 | 5.2 | 0.00 | 0.00 | 0.00 | 67 | 1009.1 |
| 20260505233912 | 65 | 225 | 2.6 | 4.3 | 0.00 | 0.00 | 0.00 | 67 | 1009.0 |
| 20260505233410 | 66 | 185 | 0.9 | 1.7 | 0.00 | 0.00 | 0.00 | 66 | 1008.7 |
| 20260505232907 | 66 | 237 | 0.9 | 0.9 | 0.00 | 0.00 | 0.00 | 65 | 1008.7 |
| 20260505232405 | 66 | 221 | 5.2 | 6.1 | 0.00 | 0.00 | 0.00 | 64 | 1008.6 |
| 20260505231902 | 66 | 158 | 3.5 | 4.3 | 0.00 | 0.00 | 0.00 | 64 | 1008.6 |
| 20260505231359 | 67 | 277 | 2.6 | 5.2 | 0.00 | 0.00 | 0.00 | 64 | 1008.3 |
| 20260505230857 | 67 | 184 | 0.9 | 1.7 | 0.00 | 0.00 | 0.00 | 63 | 1008.5 |
| 20260505230354 | 67 | 213 | 2.6 | 5.2 | 0.00 | 0.00 | 0.00 | 63 | 1008.4 |
| 20260505225851 | 67 | 167 | 2.6 | 5.2 | 0.00 | 0.00 | 0.00 | 62 | 1008.3 |
| 20260505225348 | 68 | 271 | 2.6 | 4.3 | 0.00 | 0.00 | 0.00 | 62 | 1008.3 |
| 20260505224843 | 68 | 191 | 0.9 | 1.7 | 0.00 | 0.00 | 0.00 | 62 | 1008.2 |
| 20260505224341 | 68 | 183 | 0.9 | 0.9 | 0.00 | 0.00 | 0.00 | 61 | 1008.3 |
| 20260505223838 | 69 | 144 | 2.6 | 4.3 | 0.00 | 0.00 | 0.00 | 60 | 1008.1 |
| 20260505223335 | 69 | 226 | 0.9 | 1.7 | 0.00 | 0.00 | 0.00 | 60 | 1008.1 |
| 20260505222831 | 69 | 16 | 1.7 | 2.6 | 0.00 | 0.00 | 0.00 | 60 | 1007.7 |
| 20260505222327 | 69 | 289 | 4.3 | 7.0 | 0.00 | 0.00 | 0.00 | 59 | 1007.9 |
| 20260505221824 | 70 | 178 | 2.6 | 5.2 | 0.00 | 0.00 | 0.00 | 59 | 1007.8 |
| 20260505221321 | 70 | 213 | 2.6 | 2.6 | 0.00 | 0.00 | 0.00 | 59 | 1007.7 |
| 20260505220818 | 70 | 130 | 7.0 | 7.8 | 0.00 | 0.00 | 0.00 | 58 | 1007.9 |
| 20260505220315 | 71 | 174 | 2.6 | 4.3 | 0.00 | 0.00 | 0.00 | 58 | 1007.9 |
| 20260505215813 | 71 | 150 | 2.6 | 2.6 | 0.00 | 0.00 | 0.00 | 58 | 1007.9 |
| 20260505215311 | 71 | 224 | 2.6 | 4.3 | 0.00 | 0.00 | 0.00 | 57 | 1007.9 |
| 20260505214808 | 72 | 164 | 3.5 | 4.3 | 0.00 | 0.00 | 0.00 | 56 | 1007.8 |
| 20260505214306 | 72 | 192 | 4.3 | 5.2 | 0.00 | 0.00 | 0.00 | 56 | 1007.8 |
| 20260505213802 | 72 | 223 | 7.8 | 13.0 | 0.00 | 0.00 | 0.00 | 55 | 1007.8 |
| 20260505213301 | 72 | 148 | 7.0 | 8.7 | 0.00 | 0.00 | 0.00 | 56 | 1007.8 |
| 20260505212755 | 72 | 211 | 1.7 | 2.6 | 0.00 | 0.00 | 0.00 | 56 | 1008.0 |
| 20260505212253 | 73 | 245 | 6.1 | 7.0 | 0.00 | 0.00 | 0.00 | 55 | 1007.9 |